• In India
  • List of Countries
  • For 7 days
  • Water Temperature
  • Satellite Maps
  • Weather Map
  • Weather Widgets
  • user-avatar
    Login

    Hourly Weather Newcastle

    Today, 11 December, Monday

    Time Temperature Precipitation Wind Pressure Humidity
    00:00 +16°C° 0 mm 3 mps 764 mmHg 90%
    01:00 +16°C° 0 mm 3 mps 764 mmHg 93%
    02:00 +16°C° 0 mm 2 mps 764 mmHg 93%
    03:00 +15°C° 0 mm 2 mps 764 mmHg 94%
    04:00 +15°C° 0 mm 1 mps 764 mmHg 95%
    05:00 +18°C° 0 mm 1 mps 764 mmHg 85%
    06:00 +21°C° 0 mm 1 mps 764 mmHg 74%
    07:00 +23°C° 0 mm 1 mps 764 mmHg 64%
    08:00 +25°C° 0 mm 2 mps 764 mmHg 56%
    09:00 +27°C° 0 mm 2 mps 764 mmHg 48%
    10:00 +30°C° 0 mm 2 mps 764 mmHg 41%
    11:00 +30°C° 0 mm 2 mps 763 mmHg 40%
    12:00 +31°C° 0 mm 3 mps 763 mmHg 39%
    13:00 +32°C° 0 mm 4 mps 762 mmHg 38%
    14:00 +32°C° 0 mm 4 mps 762 mmHg 41%
    15:00 +30°C° 0 mm 4 mps 762 mmHg 44%
    16:00 +29°C° 0 mm 5 mps 761 mmHg 49%
    17:00 +27°C° 0 mm 5 mps 762 mmHg 56%
    18:00 +25°C° 0 mm 4 mps 762 mmHg 63%
    19:00 +22°C° 0 mm 4 mps 762 mmHg 70%
    20:00 +21°C° 0 mm 4 mps 763 mmHg 75%
    21:00 +20°C° 0 mm 3 mps 763 mmHg 80%
    22:00 +19°C° 0 mm 2 mps 763 mmHg 88%
    23:00 +18°C° 0 mm 2 mps 763 mmHg 91%

    Tomorrow, 12 December, Tuesday

    Time Temperature Precipitation Wind Pressure Humidity
    00:00 +18°C° 0 mm 2 mps 763 mmHg 93%
    01:00 +18°C° 0 mm 2 mps 763 mmHg 96%
    02:00 +17°C° 0 mm 2 mps 763 mmHg 97%
    03:00 +18°C° 0 mm 1 mps 763 mmHg 97%
    04:00 +18°C° 0 mm 1 mps 763 mmHg 97%
    05:00 +20°C° 0 mm 1 mps 763 mmHg 89%
    06:00 +20°C° 0 mm 2 mps 763 mmHg 80%
    07:00 +23°C° 0 mm 2 mps 763 mmHg 72%
    08:00 +25°C° 0 mm 2 mps 763 mmHg 63%
    09:00 +27°C° 0 mm 2 mps 763 mmHg 55%
    10:00 +30°C° 0 mm 3 mps 763 mmHg 46%
    11:00 +30°C° 0 mm 3 mps 762 mmHg 44%
    12:00 +32°C° 0 mm 4 mps 762 mmHg 43%
    13:00 +33°C° 0 mm 4 mps 762 mmHg 41%
    14:00 +33°C° 0 mm 5 mps 761 mmHg 44%
    15:00 +32°C° 0 mm 5 mps 761 mmHg 46%
    16:00 +30°C° 0 mm 6 mps 760 mmHg 49%
    17:00 +28°C° 0 mm 6 mps 760 mmHg 57%
    18:00 +26°C° 0 mm 6 mps 761 mmHg 64%
    19:00 +23°C° 0 mm 6 mps 761 mmHg 71%
    20:00 +22°C° 0 mm 5 mps 761 mmHg 76%
    21:00 +22°C° 0 mm 5 mps 761 mmHg 80%
    22:00 +21°C° 0 mm 5 mps 761 mmHg 84%
    23:00 +20°C° 0 mm 4 mps 761 mmHg 87%

    Day after tomorrow, 13 December, Wednesday

    Time Temperature Precipitation Wind Pressure Humidity
    00:00 +19°C° 0 mm 4 mps 761 mmHg 90%
    01:00 +19°C° 0 mm 4 mps 760 mmHg 93%
    02:00 +18°C° 0 mm 3 mps 760 mmHg 94%
    03:00 +18°C° 0 mm 3 mps 760 mmHg 95%
    04:00 +18°C° 0 mm 3 mps 760 mmHg 95%
    05:00 +20°C° 0 mm 3 mps 760 mmHg 86%
    06:00 +22°C° 0 mm 3 mps 760 mmHg 76%
    07:00 +25°C° 0 mm 3 mps 760 mmHg 66%
    08:00 +28°C° 0 mm 3 mps 760 mmHg 56%
    09:00 +33°C° 0 mm 3 mps 760 mmHg 45%
    10:00 +36°C° 0 mm 3 mps 760 mmHg 35%
    11:00 +37°C° 0 mm 4 mps 759 mmHg 32%
    12:00 +39°C° 0 mm 5 mps 759 mmHg 29%
    13:00 +40°C° 0 mm 5 mps 758 mmHg 26%
    14:00 +39°C° 0 mm 6 mps 758 mmHg 28%
    15:00 +38°C° 0 mm 6 mps 757 mmHg 30%
    16:00 +36°C° 0 mm 7 mps 757 mmHg 32%
    17:00 +34°C° 0 mm 7 mps 757 mmHg 39%
    18:00 +32°C° 0 mm 7 mps 757 mmHg 45%
    19:00 +29°C° 0 mm 7 mps 757 mmHg 52%
    20:00 +28°C° 0 mm 7 mps 757 mmHg 55%
    21:00 +27°C° 0 mm 6 mps 758 mmHg 58%
    22:00 +24°C° 0 mm 6 mps 758 mmHg 61%
    23:00 +25°C° 0 mm 5 mps 757 mmHg 62%

    14 December, Thursday

    Time Temperature Precipitation Wind Pressure Humidity
    00:00 +23°C° 0 mm 5 mps 757 mmHg 63%
    01:00 +23°C° 0 mm 5 mps 757 mmHg 64%
    02:00 +22°C° 0 mm 5 mps 757 mmHg 63%
    03:00 +22°C° 0 mm 4 mps 756 mmHg 62%
    04:00 +22°C° 0 mm 4 mps 756 mmHg 62%
    05:00 +25°C° 0 mm 4 mps 756 mmHg 57%
    06:00 +27°C° 0 mm 4 mps 757 mmHg 51%
    07:00 +28°C° 0 mm 4 mps 757 mmHg 46%
    08:00 +33°C° 0 mm 4 mps 757 mmHg 39%
    09:00 +36°C° 0 mm 4 mps 757 mmHg 32%
    10:00 +40°C° 0 mm 4 mps 756 mmHg 25%
    11:00 +41°C° 0 mm 4 mps 756 mmHg 23%
    12:00 +43°C° 0 mm 4 mps 756 mmHg 20%
    13:00 +45°C° 0 mm 5 mps 755 mmHg 17%
    14:00 +43°C° 0 mm 5 mps 755 mmHg 18%
    15:00 +44°C° 0 mm 6 mps 754 mmHg 19%
    16:00 +42°C° 0 mm 6 mps 754 mmHg 20%
    17:00 +39°C° 0 mm 6 mps 754 mmHg 28%
    18:00 +35°C° 0 mm 6 mps 755 mmHg 36%
    19:00 +32°C° 0 mm 5 mps 755 mmHg 44%
    20:00 +30°C° 0 mm 5 mps 756 mmHg 48%
    21:00 +28°C° 0 mm 4 mps 756 mmHg 51%
    22:00 +27°C° 0 mm 4 mps 756 mmHg 55%
    23:00 +26°C° 0.1 mm 3 mps 756 mmHg 59%

    15 December, Friday

    Time Temperature Precipitation Wind Pressure Humidity
    00:00 +26°C° 0.1 mm 3 mps 756 mmHg 63%
    01:00 +25°C° 0.1 mm 2 mps 756 mmHg 66%
    02:00 +25°C° 0.4 mm 2 mps 756 mmHg 69%
    03:00 +24°C° 0.4 mm 2 mps 756 mmHg 72%
    04:00 +24°C° 0.4 mm 3 mps 757 mmHg 75%
    05:00 +24°C° 0.1 mm 3 mps 757 mmHg 78%
    06:00 +24°C° 0.1 mm 3 mps 758 mmHg 81%
    07:00 +25°C° 0.1 mm 3 mps 758 mmHg 84%
    08:00 +26°C° 0 mm 3 mps 758 mmHg 78%
    09:00 +28°C° 0 mm 3 mps 758 mmHg 71%
    10:00 +29°C° 0 mm 3 mps 759 mmHg 65%
    11:00 +30°C° 0 mm 3 mps 758 mmHg 62%
    12:00 +30°C° 0 mm 3 mps 758 mmHg 59%
    13:00 +31°C° 0 mm 3 mps 758 mmHg 56%
    14:00 +31°C° 0 mm 3 mps 757 mmHg 57%
    15:00 +30°C° 0 mm 3 mps 757 mmHg 59%
    16:00 +30°C° 0 mm 3 mps 757 mmHg 60%
    17:00 +29°C° 0 mm 3 mps 757 mmHg 64%
    18:00 +28°C° 0 mm 4 mps 757 mmHg 69%
    19:00 +27°C° 0 mm 5 mps 757 mmHg 73%
    20:00 +27°C° 0.1 mm 5 mps 758 mmHg 73%
    21:00 +26°C° 0.1 mm 4 mps 758 mmHg 73%
    22:00 +25°C° 0.1 mm 4 mps 758 mmHg 73%
    23:00 +25°C° 0.4 mm 3 mps 758 mmHg 76%

    16 December, Saturday

    Time Temperature Precipitation Wind Pressure Humidity
    00:00 +24°C° 0.4 mm 3 mps 758 mmHg 79%
    01:00 +24°C° 0.4 mm 2 mps 758 mmHg 81%
    02:00 +23°C° 0 mm 2 mps 758 mmHg 84%
    03:00 +22°C° 0 mm 3 mps 757 mmHg 86%
    04:00 +21°C° 0 mm 3 mps 757 mmHg 89%
    05:00 +24°C° 0.1 mm 3 mps 758 mmHg 82%
    06:00 +25°C° 0.1 mm 4 mps 758 mmHg 76%
    07:00 +27°C° 0.1 mm 4 mps 759 mmHg 69%
    08:00 +30°C° 0 mm 3 mps 758 mmHg 57%
    09:00 +35°C° 0 mm 3 mps 758 mmHg 45%
    10:00 +38°C° 0 mm 3 mps 758 mmHg 32%
    11:00 +39°C° 0 mm 3 mps 758 mmHg 29%
    12:00 +42°C° 0 mm 4 mps 757 mmHg 26%
    13:00 +43°C° 0 mm 5 mps 757 mmHg 23%
    14:00 +40°C° 0.1 mm 5 mps 757 mmHg 32%
    15:00 +36°C° 0.1 mm 5 mps 756 mmHg 41%
    16:00 +33°C° 0.1 mm 5 mps 756 mmHg 50%
    17:00 +30°C° 0.9 mm 5 mps 757 mmHg 60%
    18:00 +28°C° 0.9 mm 5 mps 758 mmHg 69%
    19:00 +26°C° 0.9 mm 5 mps 758 mmHg 79%
    20:00 +26°C° 4.2 mm 4 mps 759 mmHg 85%
    21:00 +25°C° 4.2 mm 4 mps 759 mmHg 90%
    22:00 +24°C° 4.2 mm 3 mps 760 mmHg 96%
    23:00 +24°C° 1.2 mm 3 mps 760 mmHg 96%
    Show more